Location: Stillwell
(40.4602°N, 82.0928°W)
Time: 07:56:13
(UTC-04:00)

Daily predictions for brighter satellites

Satellite Brightness Start Highest point End
(mag) Time Altitude Azimuth Time Altitude Azimuth Time Altitude Azimuth
Cosmos 1891 Rocket 4.5 21:16:03 10° N 21:22:11 79° E 21:28:12 10° S
Envisat 3.9 21:18:17 10° SE 21:22:48 34° ENE 21:27:20 10° N
GEOS 3 Rocket 3.9 21:19:16 10° SE 21:24:26 63° NE 21:29:37 10° NNW
CZ-2D R/B 4.3 21:21:06 10° S 21:24:53 49° W 21:28:42 10° NNW
Milstar 3 Cent rocket 4.4 21:19:54 10° WSW 21:26:20 19° SW 21:30:46 10° S
FENGYUN 3A 4.2 21:27:41 10° S 21:33:00 62° W 21:38:22 10° NNW
Cosmos 1515 4.3 21:29:58 10° SSE 21:33:33 38° E 21:37:09 10° NNE
CZ-2C R/B 0.4 21:32:08 10° S 21:34:24 79° WSW 21:36:41 10° NNW
Cosmos 1602 Rocket 3.7 21:30:46 10° S 21:35:14 82° W 21:39:43 10° N
Cosmos 1603 4.3 21:32:43 10° SW 21:38:16 62° WNW 21:43:50 10° NNE
Cosmos 1825 Rocket 4.4 21:34:44 10° SSE 21:38:44 33° E 21:42:42 10° NNE
USA 186 3.7 21:41:30 10° SSW 21:43:41 22° W 21:45:48 10° NW
Cosmos 1943 Rocket 3.6 21:41:27 10° N 21:45:53 24° NE 21:50:19 10° ESE
ALOS 3.6 21:41:37 10° SSW 21:45:58 39° W 21:50:21 10° NNW
Cosmos 1812 Rocket 3.6 21:42:28 10° N 21:46:54 88° E 21:51:20 10° S
Lacrosse 4 Rocket 1.5 21:43:29 10° S 21:47:23 49° ESE 21:51:21 10° NE
Atlas Centaur 2 3.4 21:47:24 10° WSW 21:53:38 38° S 22:00:12 13° ESE
Cosmos 1992 Rocket 4.0 21:50:04 10° NNW 21:55:19 85° ENE 22:00:17 11° SSE
SeaSat 1 3.2 21:52:49 13° ESE 21:56:50 40° ENE 22:01:26 10° N
Cosmos 1943 3.2 21:51:49 10° SSW 21:57:29 80° ESE 22:03:12 10° NNE
ISS -0.9 21:54:48 10° W 21:57:37 26° NNW 22:00:27 10° NE
Tsikada Rocket 4.3 21:51:39 10° SSW 21:58:02 74° W 22:04:26 10° N
H-2A R/B 2.4 21:54:15 10° S 21:58:30 66° WSW 22:02:53 10° NNW
deb Chang Zheng 4 4.4 22:01:39 10° N 22:05:57 55° WNW 22:10:12 10° SSW
Meteor 2-12 Rocket 4.5 22:01:03 10° N 22:07:10 85° W 22:13:13 10° S
USA 81 4.0 22:07:23 10° N 22:12:41 72° E 22:17:13 14° SSE
CZ-4B R/B 3.7 22:09:11 10° NNE 22:14:13 53° E 22:19:12 11° S
Cosmos 1953 4.0 22:12:58 10° NNE 22:15:49 19° ENE 22:17:07 16° E
Cosmos 1939 Rocket 3.6 22:12:58 10° S 22:17:00 52° W 22:21:03 10° NNW
PSLV R/B 3.3 22:15:20 10° W 22:18:52 85° N 22:21:15 20° E
Cosmos 2142 Rocket 4.5 22:14:23 10° N 22:20:42 80° E 22:25:55 15° S
Terra 3.5 22:19:03 14° E 22:21:19 19° ENE 22:24:37 10° NNE
ARGOS 3.7 22:18:01 20° SE 22:21:32 46° ENE 22:26:41 10° N
ATLAS 3B R/B 3.0 22:14:21 10° SW 22:22:06 85° WNW 22:29:40 10° NNE
Cosmos 1190 Rocket 4.2 22:17:12 10° SSW 22:22:30 77° WNW 22:27:51 10° NNE
Cosmos 1346 Rocket 2.7 22:19:41 12° S 22:23:19 84° E 22:27:17 10° N
SPOT 5 2.8 22:21:02 15° S 22:24:36 70° WSW 22:28:55 10° NNW
USA 245 4.2 22:21:18 19° SSE 22:25:16 62° ENE 22:29:59 10° N
Cosmos-2242 4.0 22:22:20 10° NNE 22:26:18 32° ENE 22:28:02 24° ESE
Cosmos 1842 4.0 22:25:38 27° SE 22:27:00 35° E 22:30:36 10° NNE
Cosmos 1953 Rocket 3.5 22:23:11 12° S 22:27:20 86° E 22:31:49 10° N
CZ-4 SHROUD 4.1 22:25:31 17° SSW 22:27:41 45° W 22:30:45 10° NNW
Cosmos 1634 Rocket 4.0 22:21:37 10° N 22:27:49 87° W 22:33:07 15° S
MetOp-B 4.1 22:24:18 17° SSE 22:28:27 90° WSW 22:33:51 10° NNW
PSLV R/B 4.0 22:26:38 18° SSW 22:28:38 47° W 22:31:40 10° NNW
Cosmos 1140 Rocket 4.2 22:26:31 22° SSE 22:29:03 35° E 22:33:46 10° NE
H-2A R/B 3.1 22:33:42 21° ESE 22:35:58 29° ENE 22:40:21 10° N
Meteor 1-21 4.2 22:31:59 14° S 22:36:56 72° E 22:42:45 10° NNE
Cosmos 1607 4.3 22:32:57 15° S 22:37:44 40° ESE 22:43:29 10° NE
Cosmos 676 Rocket 4.0 22:34:41 10° SSW 22:40:01 90° W 22:45:23 10° NNE
Cosmos 2369 Rocket 2.8 22:35:06 10° NNW 22:40:34 51° WSW 22:44:34 18° S
USA 234 3.7 22:37:08 17° ESE 22:42:09 57° NE 22:48:34 10° NW
SPOT 1/Viking Rocket 3.5 22:41:55 24° SSE 22:45:03 88° WSW 22:50:14 10° NNW
YAOGAN 6 2.8 22:43:54 30° S 22:45:38 70° W 22:49:22 10° NNW
Cosmos 2279 Rocket 4.0 22:40:06 10° N 22:46:23 77° E 22:50:14 25° SSE
Cosmos 1932 4.3 22:40:37 10° SSW 22:46:46 80° ESE 22:53:01 10° NE
SL-08 RB Rocket 3.6 22:51:27 35° SSE 22:53:20 75° ENE 22:57:52 10° N
Cosmos 1766 3.4 22:49:36 10° N 22:53:38 76° W 22:55:14 35° S
NOAA 11 4.1 22:51:03 29° SSE 22:53:55 82° ENE 22:59:22 10° NNW
SAR-Lupe-2 4.2 22:58:16 38° E 22:58:39 39° ENE 23:02:00 10° N
Cosmos 1340 4.5 23:00:50 18° ENE 23:00:50 18° ENE 23:02:50 10° NE
Cosmos 1758 Rocket 4.4 22:57:13 14° SSW 23:00:51 49° W 23:05:06 10° N
Cosmos 1544 4.5 22:58:41 10° NNE 23:01:52 25° ENE 23:01:55 25° ENE
CARTOSAT-1 4.0 23:02:00 39° ESE 23:03:02 47° ENE 23:07:12 10° N
CZ-4C R/B 3.2 23:03:35 26° ESE 23:03:35 26° ESE 23:07:49 10° NE
Cosmos 1758 3.4 23:00:38 10° N 23:04:45 67° E 23:05:36 51° SE
USA 238 DEB 3.7 23:02:34 10° SSW 23:09:40 88° SE 23:16:48 10° NE
USA 238 3.7 23:02:41 10° SSW 23:09:47 88° SE 23:16:53 10° NE
SL-27 R/B 3.2 23:10:36 29° SW 23:11:56 48° WNW 23:15:12 10° N
DMSP B5D2-2 4.2 23:11:31 10° NNE 23:16:43 58° E 23:18:08 43° SSE
Cosmos 1470 3.8 23:15:57 10° NNE 23:19:20 32° ENE 23:19:20 32° ENE
Cosmos 1805 3.1 23:16:04 10° N 23:20:03 88° E 23:20:29 70° SSE
IGS 5A 3.5 23:19:53 56° ESE 23:20:25 63° ENE 23:24:33 10° N
COSMOS 2487 3.2 23:24:51 43° ENE 23:24:51 43° ENE 23:27:36 10° NNE
COSMOS 2406 3.3 23:21:23 18° SSW 23:25:43 78° WNW 23:31:30 10° NNE
Lacrosse 4 Rocket 4.4 23:23:52 10° W 23:26:25 16° NW 23:29:00 10° N
Cosmos 1943 Rocket 2.7 23:24:32 10° NNW 23:29:54 51° WSW 23:31:53 35° SSW
Cosmos 1842 Rocket 3.4 23:28:09 10° N 23:32:34 87° E 23:33:08 68° SSE
Cosmos 2084 4.0 23:29:15 10° NW 23:33:15 44° WSW 23:33:35 43° SW
Cosmos 2082 Rocket 4.3 23:34:49 12° E 23:34:49 12° E 23:36:04 10° ENE
SeaSat 1 3.9 23:32:37 22° SW 23:34:26 27° WSW 23:38:36 10° NW
ISS 0.0 23:33:31 10° NNW 23:34:56 12° N 23:36:20 10° NNE
Cosmos 1656 Rocket 3.6 23:31:03 10° NNW 23:36:46 86° ENE 23:38:15 52° SSE
CZ-4C R/B 4.4 23:36:09 34° SW 23:36:58 38° W 23:40:44 10° NNW
Cosmos 2208 Rocket 4.1 23:37:07 10° NNW 23:42:15 65° WSW 23:43:24 50° SSW
Atlas Centaur 2 3.8 23:36:15 10° WSW 23:42:42 30° SSW 23:42:50 30° SSW
Landsat 7 4.5 23:41:38 37° SW 23:42:52 46° W 23:47:27 10° NNW
NOSS 3-2 (C) 3.6 23:43:08 48° SE 23:44:00 51° ESE 23:50:20 10° NE
Cosmos 1707 3.3 23:50:19 49° NE 23:50:19 49° NE 23:53:28 10° NNE
Cosmos 1953 3.7 23:48:51 10° NNW 23:52:18 29° W 23:52:53 28° WSW
Geosat 4.4 23:48:24 10° NNE 23:53:21 61° WNW 23:55:55 28° SW
